| time (UTC) | temp F | wind direction | speed MPH | gust MPH | rain 1hr in | rain 24hr in | rain mn in | humidity % | barometer mb |
| 20260902051538 | 75 | 323 | 6.0 | 10.0 | 0.00 | 0.00 | 0.00 | 60 | 1015.5 |
| 20260902051038 | 75 | 315 | 6.0 | 11.0 | 0.00 | 0.00 | 0.00 | 59 | 1015.4 |
| 20260902050538 | 75 | 310 | 7.0 | 12.0 | 0.00 | 0.00 | 0.00 | 59 | 1015.4 |
| 20260902050038 | 75 | 331 | 8.0 | 11.0 | 0.00 | 0.00 | 0.00 | 59 | 1015.4 |
| 20260902045538 | 75 | 320 | 8.0 | 9.0 | 0.00 | 0.00 | 0.00 | 59 | 1015.4 |
| 20260902045038 | 75 | 342 | 10.0 | 10.0 | 0.00 | 0.00 | 0.00 | 59 | 1015.4 |
| 20260902044541 | 75 | 346 | 4.0 | 8.0 | 0.00 | 0.00 | 0.00 | 60 | 1015.3 |
| 20260902044039 | 75 | 344 | 6.0 | 8.0 | 0.00 | 0.00 | 0.00 | 60 | 1015.3 |
| 20260902043538 | 75 | 23 | 3.0 | 8.0 | 0.00 | 0.00 | 0.00 | 61 | 1015.4 |
| 20260902043041 | 75 | 344 | 3.0 | 10.0 | 0.00 | 0.00 | 0.00 | 62 | 1015.5 |
| 20260902042541 | 75 | 315 | 6.0 | 8.0 | 0.00 | 0.00 | 0.00 | 63 | 1015.6 |
| 20260902042038 | 75 | 341 | 6.0 | 9.0 | 0.00 | 0.00 | 0.00 | 64 | 1015.5 |
| 20260902041539 | 75 | 311 | 5.0 | 9.0 | 0.00 | 0.00 | 0.00 | 65 | 1015.4 |
| 20260902041041 | 75 | 332 | 3.0 | 8.0 | 0.00 | 0.00 | 0.00 | 68 | 1015.4 |
| 20260902040541 | 75 | 311 | 3.0 | 8.0 | 0.00 | 0.00 | 0.00 | 69 | 1015.4 |
| 20260902040038 | 74 | 324 | 3.0 | 8.0 | 0.00 | 0.00 | 0.00 | 71 | 1015.4 |
| 20260902035538 | 74 | 317 | 3.0 | 9.0 | 0.00 | 0.00 | 0.00 | 70 | 1015.3 |
| 20260902035038 | 74 | 321 | 3.0 | 8.0 | 0.00 | 0.00 | 0.00 | 70 | 1015.3 |
| 20260902034538 | 74 | 339 | 5.0 | 8.0 | 0.00 | 0.00 | 0.00 | 71 | 1015.3 |
| 20260902034038 | 74 | 330 | 1.0 | 8.0 | 0.00 | 0.00 | 0.00 | 71 | 1015.4 |
| 20260902033538 | 75 | 309 | 4.0 | 6.0 | 0.00 | 0.00 | 0.00 | 71 | 1015.4 |
| 20260902033038 | 75 | 313 | 3.0 | 8.0 | 0.00 | 0.00 | 0.00 | 70 | 1015.4 |
| 20260902032538 | 75 | 319 | 2.0 | 4.0 | 0.00 | 0.00 | 0.00 | 71 | 1015.4 |
| 20260902032038 | 75 | 305 | 2.0 | 5.0 | 0.00 | 0.00 | 0.00 | 71 | 1015.5 |
| 20260902031538 | 75 | 338 | 2.0 | 8.0 | 0.00 | 0.00 | 0.00 | 72 | 1015.5 |
| 20260902031041 | 75 | 300 | 2.0 | 5.0 | 0.00 | 0.00 | 0.00 | 71 | 1015.4 |
| 20260902030538 | 75 | 310 | 1.0 | 5.0 | 0.00 | 0.00 | 0.00 | 71 | 1015.4 |
| 20260902030038 | 75 | 334 | 2.0 | 6.0 | 0.00 | 0.00 | 0.00 | 72 | 1015.4 |
| 20260902025538 | 75 | 299 | 2.0 | 8.0 | 0.00 | 0.00 | 0.00 | 72 | 1015.3 |
| 20260902025038 | 75 | 321 | 3.0 | 10.0 | 0.00 | 0.00 | 0.00 | 72 | 1015.2 |
| 20260902024539 | 75 | 302 | 5.0 | 6.0 | 0.00 | 0.00 | 0.00 | 73 | 1015.2 |
| 20260902024038 | 75 | 315 | 1.0 | 6.0 | 0.00 | 0.00 | 0.00 | 72 | 1015.2 |
| 20260902023538 | 75 | 311 | 1.0 | 9.0 | 0.00 | 0.00 | 0.00 | 71 | 1015.2 |
| 20260902023038 | 75 | 306 | 5.0 | 8.0 | 0.00 | 0.00 | 0.00 | 72 | 1015.2 |
| 20260902022541 | 75 | 320 | 5.0 | 7.0 | 0.00 | 0.00 | 0.00 | 71 | 1015.2 |
| 20260902022038 | 75 | 305 | 2.0 | 8.0 | 0.00 | 0.00 | 0.00 | 70 | 1015.2 |
| 20260902021539 | 75 | 307 | 3.0 | 10.0 | 0.00 | 0.00 | 0.00 | 69 | 1015.1 |
| 20260902021039 | 76 | 314 | 8.0 | 10.0 | 0.00 | 0.00 | 0.00 | 68 | 1015.1 |
| 20260902020538 | 76 | 319 | 1.0 | 6.0 | 0.00 | 0.00 | 0.00 | 67 | 1015.1 |
| 20260902020038 | 76 | 304 | 2.0 | 4.0 | 0.00 | 0.00 | 0.00 | 66 | 1015.1 |
| 20260902015538 | 76 | 0 | 1.0 | 6.0 | 0.00 | 0.00 | 0.00 | 66 | 1015.1 |
| 20260902015038 | 76 | 330 | 1.0 | 11.0 | 0.00 | 0.00 | 0.00 | 67 | 1015.1 |
| 20260902014538 | 76 | 311 | 8.0 | 11.0 | 0.00 | 0.00 | 0.00 | 67 | 1015.1 |
| 20260902014038 | 76 | 291 | 3.0 | 8.0 | 0.00 | 0.00 | 0.00 | 69 | 1015.1 |
| 20260902013538 | 76 | 309 | 0.0 | 7.0 | 0.00 | 0.00 | 0.00 | 69 | 1015.2 |
| 20260902013038 | 76 | 316 | 4.0 | 9.0 | 0.00 | 0.00 | 0.00 | 70 | 1015.2 |
| 20260902012538 | 76 | 313 | 1.0 | 4.0 | 0.00 | 0.00 | 0.00 | 70 | 1015.2 |
| 20260902012038 | 76 | 294 | 0.0 | 4.0 | 0.00 | 0.00 | 0.00 | 70 | 1015.2 |
| 20260902011541 | 76 | 325 | 2.0 | 4.0 | 0.00 | 0.00 | 0.00 | 70 | 1015.2 |
| 20260902011038 | 76 | 300 | 0.0 | 3.0 | 0.00 | 0.00 | 0.00 | 71 | 1015.2 |
| 20260902010538 | 76 | 331 | 1.0 | 5.0 | 0.00 | 0.00 | 0.00 | 71 | 1015.2 |
| 20260902010038 | 76 | 306 | 0.0 | 4.0 | 0.00 | 0.00 | 0.00 | 72 | 1015.2 |
| 20260902005538 | 76 | 304 | 0.0 | 2.0 | 0.00 | 0.00 | 0.00 | 73 | 1015.3 |
| 20260902005041 | 76 | 286 | 1.0 | 5.0 | 0.00 | 0.00 | 0.00 | 73 | 1015.3 |
| 20260902004538 | 76 | 315 | 3.0 | 5.0 | 0.00 | 0.00 | 0.00 | 73 | 1015.2 |
| 20260902004038 | 77 | 315 | 0.0 | 4.0 | 0.00 | 0.00 | 0.00 | 73 | 1015.3 |
| 20260902003538 | 77 | 325 | 4.0 | 5.0 | 0.00 | 0.00 | 0.00 | 73 | 1015.3 |
| 20260902003041 | 77 | 303 | 2.0 | 3.0 | 0.00 | 0.00 | 0.00 | 73 | 1015.4 |
| 20260902002538 | 77 | 290 | 0.0 | 3.0 | 0.00 | 0.00 | 0.00 | 73 | 1015.4 |
| 20260902002038 | 77 | 302 | 0.0 | 5.0 | 0.00 | 0.00 | 0.00 | 73 | 1015.3 |
| 20260902001538 | 77 | 302 | 1.0 | 6.0 | 0.00 | 0.00 | 0.00 | 73 | 1015.3 |
| 20260902001041 | 78 | 304 | 0.0 | 2.0 | 0.00 | 0.00 | 0.00 | 73 | 1015.4 |
| 20260902000541 | 78 | 246 | 0.0 | 4.0 | 0.00 | 0.00 | 0.00 | 73 | 1015.4 |
| 20260902000038 | 78 | 317 | 3.0 | 5.0 | 0.00 | 0.00 | 0.00 | 72 | 1015.4 |
| 20260901235538 | 79 | 311 | 2.0 | 9.0 | 0.00 | 0.00 | 0.00 | 73 | 1015.4 |
| 20260901235038 | 79 | 300 | 4.0 | 9.0 | 0.00 | 0.00 | 0.00 | 73 | 1015.4 |
| 20260901234538 | 79 | 306 | 1.0 | 9.0 | 0.00 | 0.00 | 0.00 | 74 | 1015.4 |
| 20260901234038 | 79 | 265 | 3.0 | 5.0 | 0.00 | 0.00 | 0.00 | 73 | 1015.5 |
| 20260901233538 | 79 | 323 | 1.0 | 4.0 | 0.00 | 0.00 | 0.00 | 73 | 1015.5 |
| 20260901233038 | 79 | 315 | 0.0 | 4.0 | 0.00 | 0.00 | 0.00 | 73 | 1015.5 |
| 20260901232538 | 79 | 316 | 1.0 | 8.0 | 0.00 | 0.00 | 0.00 | 73 | 1015.5 |
| 20260901232038 | 79 | 320 | 0.0 | 5.0 | 0.00 | 0.00 | 0.00 | 73 | 1015.6 |
| 20260901231538 | 79 | 268 | 1.0 | 4.0 | 0.00 | 0.00 | 0.00 | 73 | 1015.6 |
| 20260901231038 | 79 | 184 | 0.0 | 5.0 | 0.00 | 0.00 | 0.00 | 73 | 1015.6 |
| 20260901230538 | 79 | 319 | 0.0 | 4.0 | 0.00 | 0.00 | 0.00 | 74 | 1015.6 |
| 20260901230038 | 79 | 319 | 0.0 | 5.0 | 0.00 | 0.00 | 0.00 | 74 | 1015.5 |
| 20260901225538 | 79 | 302 | 0.0 | 5.0 | 0.00 | 0.00 | 0.00 | 75 | 1015.6 |
| 20260901225038 | 79 | 284 | 1.0 | 6.0 | 0.00 | 0.00 | 0.00 | 75 | 1015.7 |
| 20260901224538 | 79 | 254 | 1.0 | 7.0 | 0.00 | 0.00 | 0.00 | 74 | 1015.7 |
| 20260901224038 | 79 | 166 | 3.0 | 6.0 | 0.00 | 0.00 | 0.00 | 74 | 1015.6 |
| 20260901223538 | 79 | 247 | 5.0 | 3.0 | 0.00 | 0.00 | 0.00 | 75 | 1015.5 |
| 20260901223038 | 80 | 319 | 0.0 | 3.0 | 0.00 | 0.00 | 0.00 | 75 | 1015.5 |
| 20260901222538 | 80 | 140 | 0.0 | 6.0 | 0.00 | 0.00 | 0.00 | 73 | 1015.8 |
| 20260901222038 | 80 | 185 | 2.0 | 6.0 | 0.00 | 0.00 | 0.00 | 70 | 1015.7 |
| 20260901221538 | 80 | 285 | 0.0 | 2.0 | 0.00 | 0.00 | 0.00 | 70 | 1015.5 |
| 20260901221041 | 80 | 321 | 0.0 | 5.0 | 0.00 | 0.00 | 0.00 | 70 | 1015.5 |
| 20260901220538 | 80 | 321 | 0.0 | 2.0 | 0.00 | 0.00 | 0.00 | 70 | 1015.4 |
| 20260901220041 | 80 | 317 | 1.0 | 2.0 | 0.00 | 0.00 | 0.00 | 71 | 1015.4 |
| 20260901215538 | 80 | 316 | 0.0 | 3.0 | 0.00 | 0.00 | 0.00 | 71 | 1015.4 |
| 20260901215038 | 80 | 317 | 0.0 | 4.0 | 0.00 | 0.00 | 0.00 | 71 | 1015.4 |
| 20260901214541 | 80 | 319 | 0.0 | 2.0 | 0.00 | 0.00 | 0.00 | 72 | 1015.5 |
| 20260901214041 | 80 | 316 | 0.0 | 3.0 | 0.00 | 0.00 | 0.00 | 72 | 1015.6 |
| 20260901213541 | 80 | 315 | 0.0 | 3.0 | 0.00 | 0.00 | 0.00 | 72 | 1015.5 |
| 20260901213041 | 80 | 315 | 0.0 | 3.0 | 0.00 | 0.00 | 0.00 | 72 | 1015.5 |
| 20260901212538 | 80 | 315 | 1.0 | 2.0 | 0.00 | 0.00 | 0.00 | 73 | 1015.6 |
| 20260901212041 | 80 | 304 | 1.0 | 2.0 | 0.00 | 0.00 | 0.00 | 73 | 1015.6 |
| 20260901211538 | 80 | 295 | 0.0 | 3.0 | 0.00 | 0.00 | 0.00 | 73 | 1015.6 |
| 20260901211038 | 80 | 323 | 1.0 | 2.0 | 0.00 | 0.00 | 0.00 | 73 | 1015.6 |
| 20260901210538 | 80 | 325 | 0.0 | 2.0 | 0.00 | 0.00 | 0.00 | 73 | 1015.5 |
| 20260901210038 | 80 | 324 | 0.0 | 1.0 | 0.00 | 0.00 | 0.00 | 73 | 1015.5 |
| 20260901205541 | 80 | 324 | 0.0 | 1.0 | 0.00 | 0.00 | 0.00 | 73 | 1015.5 |
| 20260901205041 | 80 | 324 | 0.0 | 1.0 | 0.00 | 0.00 | 0.00 | 73 | 1015.6 |
| 20260901204538 | 80 | 324 | 0.0 | 2.0 | 0.00 | 0.00 | 0.00 | 73 | 1015.6 |
| 20260901204038 | 80 | 324 | 0.0 | 1.0 | 0.00 | 0.00 | 0.00 | 73 | 1015.5 |
| 20260901203538 | 80 | 324 | 0.0 | 1.0 | 0.00 | 0.00 | 0.00 | 73 | 1015.5 |
| 20260901203038 | 80 | 324 | 0.0 | 1.0 | 0.00 | 0.00 | 0.00 | 73 | 1015.5 |
| 20260901202538 | 80 | 324 | 0.0 | 1.0 | 0.00 | 0.00 | 0.00 | 73 | 1015.6 |
| 20260901202038 | 80 | 324 | 0.0 | 0.0 | 0.00 | 0.00 | 0.00 | 73 | 1015.6 |
| 20260901201538 | 80 | 324 | 0.0 | 0.0 | 0.00 | 0.00 | 0.00 | 73 | 1015.5 |
| 20260901201038 | 80 | 324 | 0.0 | 0.0 | 0.00 | 0.00 | 0.00 | 73 | 1015.5 |
| 20260901200538 | 80 | 324 | 0.0 | 0.0 | 0.00 | 0.00 | 0.00 | 73 | 1015.4 |
| 20260901200038 | 80 | 324 | 0.0 | 0.0 | 0.00 | 0.00 | 0.00 | 73 | 1015.4 |
| 20260901195538 | 80 | 324 | 0.0 | 0.0 | 0.00 | 0.00 | 0.00 | 73 | 1015.5 |
| 20260901195041 | 80 | 324 | 0.0 | 0.0 | 0.00 | 0.00 | 0.00 | 72 | 1015.5 |
| 20260901194538 | 81 | 324 | 0.0 | 0.0 | 0.00 | 0.00 | 0.00 | 72 | 1015.5 |
| 20260901194038 | 81 | 324 | 0.0 | 1.0 | 0.00 | 0.00 | 0.00 | 72 | 1015.4 |
| 20260901193538 | 81 | 324 | 0.0 | 1.0 | 0.00 | 0.00 | 0.00 | 71 | 1015.3 |
| 20260901193038 | 81 | 324 | 0.0 | 3.0 | 0.00 | 0.00 | 0.00 | 71 | 1015.3 |
| 20260901192541 | 81 | 323 | 0.0 | 2.0 | 0.00 | 0.00 | 0.00 | 71 | 1015.2 |
| 20260901192038 | 81 | 319 | 0.0 | 4.0 | 0.00 | 0.00 | 0.00 | 72 | 1015.2 |
| 20260901191538 | 81 | 319 | 5.0 | 5.0 | 0.00 | 0.00 | 0.00 | 72 | 1015.2 |
| 20260901191041 | 82 | 313 | 0.0 | 3.0 | 0.00 | 0.00 | 0.00 | 71 | 1015.2 |
| 20260901190538 | 82 | 290 | 1.0 | 1.0 | 0.00 | 0.00 | 0.00 | 72 | 1015.2 |
| 20260901190038 | 82 | 298 | 0.0 | 6.0 | 0.00 | 0.00 | 0.00 | 72 | 1015.2 |
| 20260901185541 | 82 | 294 | 1.0 | 3.0 | 0.00 | 0.00 | 0.00 | 72 | 1015.2 |
| 20260901185038 | 82 | 315 | 0.0 | 3.0 | 0.00 | 0.00 | 0.00 | 71 | 1015.2 |
| 20260901184538 | 82 | 321 | 1.0 | 5.0 | 0.00 | 0.00 | 0.00 | 71 | 1015.1 |
| 20260901184041 | 82 | 294 | 0.0 | 4.0 | 0.00 | 0.00 | 0.00 | 70 | 1015.1 |
| 20260901183538 | 82 | 200 | 1.0 | 5.0 | 0.00 | 0.00 | 0.00 | 70 | 1015.2 |
| 20260901183041 | 82 | 216 | 2.0 | 4.0 | 0.00 | 0.00 | 0.00 | 69 | 1015.0 |
| 20260901182538 | 83 | 276 | 3.0 | 3.0 | 0.00 | 0.00 | 0.00 | 69 | 1015.0 |
| 20260901182038 | 83 | 289 | 0.0 | 2.0 | 0.00 | 0.00 | 0.00 | 68 | 1014.9 |
| 20260901181541 | 83 | 323 | 1.0 | 3.0 | 0.00 | 0.00 | 0.00 | 68 | 1014.9 |
| 20260901181038 | 83 | 298 | 1.0 | 3.0 | 0.00 | 0.00 | 0.00 | 68 | 1014.8 |
| 20260901180538 | 83 | 290 | 0.0 | 3.0 | 0.00 | 0.00 | 0.00 | 68 | 1014.9 |
| 20260901180039 | 83 | 293 | 2.0 | 4.0 | 0.00 | 0.00 | 0.00 | 68 | 1014.8 |
| 20260901175538 | 84 | 339 | 1.0 | 5.0 | 0.00 | 0.00 | 0.00 | 67 | 1014.8 |
| 20260901175038 | 84 | 230 | 1.0 | 4.0 | 0.00 | 0.00 | 0.00 | 66 | 1014.8 |
| 20260901174538 | 84 | 296 | 1.0 | 7.0 | 0.00 | 0.00 | 0.00 | 65 | 1014.8 |
| 20260901174039 | 84 | 202 | 2.0 | 6.0 | 0.00 | 0.00 | 0.00 | 63 | 1014.9 |
| 20260901173538 | 85 | 342 | 2.0 | 6.0 | 0.00 | 0.00 | 0.00 | 61 | 1014.9 |
| 20260901173038 | 85 | 232 | 3.0 | 4.0 | 0.00 | 0.00 | 0.00 | 61 | 1014.9 |
| 20260901172538 | 85 | 308 | 1.0 | 2.0 | 0.00 | 0.00 | 0.00 | 60 | 1014.9 |
| 20260901172038 | 85 | 297 | 1.0 | 2.0 | 0.00 | 0.00 | 0.00 | 60 | 1014.8 |
| 20260901171538 | 85 | 298 | 1.0 | 5.0 | 0.00 | 0.00 | 0.00 | 60 | 1014.8 |
| 20260901171038 | 86 | 248 | 3.0 | 5.0 | 0.00 | 0.00 | 0.00 | 59 | 1014.8 |
| 20260901170541 | 86 | 189 | 2.0 | 6.0 | 0.00 | 0.00 | 0.00 | 58 | 1014.8 |
| 20260901170038 | 86 | 342 | 3.0 | 6.0 | 0.00 | 0.00 | 0.00 | 57 | 1014.8 |
| 20260901165539 | 87 | 226 | 4.0 | 5.0 | 0.00 | 0.00 | 0.00 | 56 | 1014.9 |
| 20260901165038 | 87 | 206 | 2.0 | 6.0 | 0.00 | 0.00 | 0.00 | 55 | 1014.9 |
| 20260901164538 | 87 | 318 | 2.0 | 4.0 | 0.00 | 0.00 | 0.00 | 52 | 1014.9 |
| 20260901164038 | 88 | 302 | 4.0 | 7.0 | 0.00 | 0.00 | 0.00 | 49 | 1014.9 |
| 20260901163538 | 88 | 294 | 2.0 | 5.0 | 0.00 | 0.00 | 0.00 | 48 | 1014.9 |
| 20260901163038 | 89 | 47 | 1.0 | 3.0 | 0.00 | 0.00 | 0.00 | 47 | 1014.9 |
| 20260901162541 | 89 | 339 | 1.0 | 3.0 | 0.00 | 0.00 | 0.00 | 46 | 1014.8 |
| 20260901162038 | 89 | 161 | 1.0 | 6.0 | 0.00 | 0.00 | 0.00 | 46 | 1014.8 |
| 20260901161538 | 89 | 252 | 2.0 | 6.0 | 0.00 | 0.00 | 0.00 | 44 | 1014.8 |
| 20260901161041 | 89 | 355 | 4.0 | 5.0 | 0.00 | 0.00 | 0.00 | 44 | 1014.8 |
| 20260901160538 | 89 | 179 | 2.0 | 7.0 | 0.00 | 0.00 | 0.00 | 43 | 1014.8 |
| 20260901160038 | 89 | 75 | 3.0 | 7.0 | 0.00 | 0.00 | 0.00 | 42 | 1014.8 |
| 20260901155541 | 89 | 83 | 1.0 | 5.0 | 0.00 | 0.00 | 0.00 | 43 | 1014.7 |
| 20260901155038 | 89 | 74 | 2.0 | 6.0 | 0.00 | 0.00 | 0.00 | 43 | 1014.7 |
| 20260901154538 | 89 | 298 | 3.0 | 7.0 | 0.00 | 0.00 | 0.00 | 44 | 1014.7 |
| 20260901154041 | 89 | 53 | 2.0 | 8.0 | 0.00 | 0.00 | 0.00 | 44 | 1014.7 |
| 20260901153541 | 89 | 338 | 2.0 | 7.0 | 0.00 | 0.00 | 0.00 | 46 | 1014.7 |
| 20260901153038 | 89 | 201 | 4.0 | 9.0 | 0.00 | 0.00 | 0.00 | 46 | 1014.7 |
| 20260901152538 | 89 | 0 | 3.0 | 7.0 | 0.00 | 0.00 | 0.00 | 48 | 1014.7 |
| 20260901152038 | 89 | 355 | 4.0 | 8.0 | 0.00 | 0.00 | 0.00 | 49 | 1014.7 |
| 20260901151538 | 89 | 285 | 7.0 | 9.0 | 0.00 | 0.00 | 0.00 | 49 | 1014.7 |
| 20260901151038 | 89 | 70 | 3.0 | 11.0 | 0.00 | 0.00 | 0.00 | 49 | 1014.8 |
| 20260901150538 | 89 | 66 | 3.0 | 6.0 | 0.00 | 0.00 | 0.00 | 49 | 1014.7 |
| 20260901150038 | 88 | 179 | 6.0 | 9.0 | 0.00 | 0.00 | 0.00 | 50 | 1014.7 |
| 20260901145538 | 88 | 272 | 2.0 | 8.0 | 0.00 | 0.00 | 0.00 | 50 | 1014.8 |
| 20260901145038 | 89 | 141 | 4.0 | 9.0 | 0.00 | 0.00 | 0.00 | 52 | 1014.8 |
| 20260901144538 | 89 | 131 | 3.0 | 6.0 | 0.00 | 0.00 | 0.00 | 51 | 1014.8 |
| 20260901144038 | 89 | 5 | 5.0 | 8.0 | 0.00 | 0.00 | 0.00 | 51 | 1014.7 |
| 20260901143538 | 89 | 36 | 4.0 | 7.0 | 0.00 | 0.00 | 0.00 | 54 | 1014.7 |
| 20260901143041 | 89 | 151 | 3.0 | 8.0 | 0.00 | 0.00 | 0.00 | 56 | 1014.7 |
| 20260901142541 | 89 | 234 | 3.0 | 8.0 | 0.00 | 0.00 | 0.00 | 55 | 1014.7 |
| 20260901142038 | 89 | 287 | 3.0 | 9.0 | 0.00 | 0.00 | 0.00 | 55 | 1014.6 |
| 20260901141538 | 89 | 234 | 2.0 | 9.0 | 0.00 | 0.00 | 0.00 | 54 | 1014.6 |
| 20260901141041 | 90 | 128 | 2.0 | 10.0 | 0.00 | 0.00 | 0.00 | 52 | 1014.6 |
| 20260901140538 | 90 | 163 | 4.0 | 6.0 | 0.00 | 0.00 | 0.00 | 53 | 1014.6 |
| 20260901140038 | 90 | 18 | 2.0 | 8.0 | 0.00 | 0.00 | 0.00 | 52 | 1014.5 |
| 20260901135538 | 89 | 32 | 3.0 | 8.0 | 0.00 | 0.00 | 0.00 | 53 | 1014.5 |
| 20260901135038 | 90 | 60 | 2.0 | 7.0 | 0.00 | 0.00 | 0.00 | 52 | 1014.7 |
| 20260901134538 | 90 | 49 | 3.0 | 6.0 | 0.00 | 0.00 | 0.00 | 54 | 1014.6 |
| 20260901134038 | 90 | 227 | 2.0 | 8.0 | 0.00 | 0.00 | 0.00 | 54 | 1014.7 |
| 20260901133538 | 90 | 116 | 4.0 | 7.0 | 0.00 | 0.00 | 0.00 | 53 | 1014.7 |
| 20260901133038 | 90 | 78 | 2.0 | 6.0 | 0.00 | 0.00 | 0.00 | 52 | 1014.7 |
| 20260901132538 | 90 | 53 | 3.0 | 9.0 | 0.00 | 0.00 | 0.00 | 50 | 1014.7 |
| 20260901132038 | 91 | 286 | 3.0 | 6.0 | 0.00 | 0.00 | 0.00 | 49 | 1014.8 |
| 20260901131538 | 91 | 86 | 2.0 | 7.0 | 0.00 | 0.00 | 0.00 | 49 | 1014.8 |
| 20260901131038 | 91 | 128 | 4.0 | 8.0 | 0.00 | 0.00 | 0.00 | 48 | 1014.8 |
| 20260901130538 | 91 | 20 | 3.0 | 8.0 | 0.00 | 0.00 | 0.00 | 47 | 1014.9 |
| 20260901130038 | 91 | 220 | 2.0 | 8.0 | 0.00 | 0.00 | 0.00 | 47 | 1014.8 |
| 20260901125539 | 91 | 209 | 4.0 | 10.0 | 0.00 | 0.00 | 0.00 | 47 | 1014.8 |
| 20260901125041 | 91 | 271 | 3.0 | 6.0 | 0.00 | 0.00 | 0.00 | 47 | 1014.9 |
| 20260901124541 | 91 | 126 | 1.0 | 7.0 | 0.00 | 0.00 | 0.00 | 48 | 1014.8 |
| 20260901124038 | 91 | 224 | 4.0 | 9.0 | 0.00 | 0.00 | 0.00 | 48 | 1014.8 |
| 20260901123538 | 91 | 231 | 2.0 | 9.0 | 0.00 | 0.00 | 0.00 | 48 | 1014.9 |
| 20260901123038 | 90 | 174 | 2.0 | 12.0 | 0.00 | 0.00 | 0.00 | 48 | 1014.9 |
| 20260901122541 | 91 | 259 | 7.0 | 8.0 | 0.00 | 0.00 | 0.00 | 47 | 1014.9 |
| 20260901122041 | 91 | 88 | 3.0 | 6.0 | 0.00 | 0.00 | 0.00 | 49 | 1014.9 |
| 20260901121538 | 90 | 309 | 2.0 | 10.0 | 0.00 | 0.00 | 0.00 | 49 | 1014.9 |
| 20260901121041 | 90 | 59 | 1.0 | 6.0 | 0.00 | 0.00 | 0.00 | 49 | 1014.9 |
| 20260901120538 | 91 | 277 | 4.0 | 10.0 | 0.00 | 0.00 | 0.00 | 47 | 1014.9 |
| 20260901120038 | 91 | 298 | 2.0 | 8.0 | 0.00 | 0.00 | 0.00 | 48 | 1014.9 |
| 20260901115538 | 91 | 30 | 4.0 | 9.0 | 0.00 | 0.00 | 0.00 | 47 | 1014.9 |
| 20260901115038 | 91 | 33 | 2.0 | 9.0 | 0.00 | 0.00 | 0.00 | 47 | 1014.9 |
| 20260901114538 | 91 | 289 | 2.0 | 8.0 | 0.00 | 0.00 | 0.00 | 46 | 1014.8 |
| 20260901114038 | 91 | 338 | 8.0 | 12.0 | 0.00 | 0.00 | 0.00 | 45 | 1014.9 |
| 20260901113538 | 91 | 32 | 2.0 | 8.0 | 0.00 | 0.00 | 0.00 | 46 | 1014.8 |
| 20260901113041 | 92 | 344 | 1.0 | 7.0 | 0.00 | 0.00 | 0.00 | 45 | 1014.8 |
| 20260901112538 | 92 | 83 | 3.0 | 5.0 | 0.00 | 0.00 | 0.00 | 45 | 1014.8 |
| 20260901112038 | 92 | 349 | 2.0 | 7.0 | 0.00 | 0.00 | 0.00 | 45 | 1014.9 |
| 20260901111538 | 92 | 330 | 5.0 | 7.0 | 0.00 | 0.00 | 0.00 | 45 | 1014.9 |
| 20260901111041 | 92 | 54 | 1.0 | 5.0 | 0.00 | 0.00 | 0.00 | 47 | 1014.8 |
| 20260901110538 | 92 | 133 | 4.0 | 7.0 | 0.00 | 0.00 | 0.00 | 47 | 1014.8 |
| 20260901110038 | 93 | 228 | 2.0 | 5.0 | 0.00 | 0.00 | 0.00 | 46 | 1014.7 |
| 20260901105538 | 93 | 38 | 1.0 | 8.0 | 0.00 | 0.00 | 0.00 | 44 | 1014.8 |
| 20260901105038 | 94 | 164 | 1.0 | 8.0 | 0.00 | 0.00 | 0.00 | 42 | 1014.9 |
| 20260901104538 | 94 | 202 | 1.0 | 3.0 | 0.00 | 0.00 | 0.00 | 35 | 1014.9 |
| 20260901104038 | 94 | 286 | 1.0 | 7.0 | 0.00 | 0.00 | 0.00 | 31 | 1014.8 |
| 20260901103538 | 93 | 264 | 2.0 | 9.0 | 0.00 | 0.00 | 0.00 | 32 | 1014.8 |
| 20260901103038 | 93 | 342 | 2.0 | 10.0 | 0.00 | 0.00 | 0.00 | 32 | 1014.9 |
| 20260901102538 | 92 | 303 | 3.0 | 10.0 | 0.00 | 0.00 | 0.00 | 31 | 1014.8 |
| 20260901102038 | 92 | 315 | 5.0 | 8.0 | 0.00 | 0.00 | 0.00 | 33 | 1014.9 |
| 20260901101538 | 92 | 321 | 0.0 | 10.0 | 0.00 | 0.00 | 0.00 | 32 | 1014.9 |
| 20260901101038 | 92 | 327 | 3.0 | 10.0 | 0.00 | 0.00 | 0.00 | 33 | 1014.8 |
| 20260901100538 | 92 | 42 | 6.0 | 11.0 | 0.00 | 0.00 | 0.00 | 34 | 1015.0 |
| 20260901100038 | 91 | 341 | 3.0 | 10.0 | 0.00 | 0.00 | 0.00 | 33 | 1015.0 |
| 20260901095538 | 91 | 310 | 8.0 | 10.0 | 0.00 | 0.00 | 0.00 | 32 | 1014.9 |
| 20260901095041 | 91 | 342 | 9.0 | 12.0 | 0.00 | 0.00 | 0.00 | 33 | 1015.0 |
| 20260901094538 | 91 | 298 | 4.0 | 12.0 | 0.00 | 0.00 | 0.00 | 35 | 1015.0 |
| 20260901094038 | 91 | 320 | 10.0 | 12.0 | 0.00 | 0.00 | 0.00 | 34 | 1015.0 |
| 20260901093539 | 91 | 5 | 3.0 | 11.0 | 0.00 | 0.00 | 0.00 | 34 | 1015.0 |
| 20260901093041 | 91 | 306 | 3.0 | 10.0 | 0.00 | 0.00 | 0.00 | 35 | 1015.0 |
| 20260901092538 | 91 | 267 | 3.0 | 10.0 | 0.00 | 0.00 | 0.00 | 35 | 1015.1 |
| 20260901092038 | 90 | 333 | 8.0 | 11.0 | 0.00 | 0.00 | 0.00 | 35 | 1015.1 |
| 20260901091541 | 90 | 303 | 4.0 | 9.0 | 0.00 | 0.00 | 0.00 | 37 | 1015.0 |
| 20260901091038 | 90 | 11 | 4.0 | 13.0 | 0.00 | 0.00 | 0.00 | 37 | 1015.0 |
| 20260901090541 | 89 | 317 | 4.0 | 11.0 | 0.00 | 0.00 | 0.00 | 38 | 1014.9 |
| 20260901090038 | 89 | 330 | 8.0 | 10.0 | 0.00 | 0.00 | 0.00 | 38 | 1014.9 |
| 20260901085541 | 89 | 315 | 9.0 | 13.0 | 0.00 | 0.00 | 0.00 | 38 | 1014.8 |
| 20260901085038 | 89 | 319 | 4.0 | 9.0 | 0.00 | 0.00 | 0.00 | 39 | 1014.9 |
| 20260901084538 | 89 | 13 | 8.0 | 12.0 | 0.00 | 0.00 | 0.00 | 38 | 1015.0 |
| 20260901084038 | 89 | 290 | 1.0 | 8.0 | 0.00 | 0.00 | 0.00 | 40 | 1015.0 |
| 20260901083538 | 88 | 5 | 3.0 | 9.0 | 0.00 | 0.00 | 0.00 | 40 | 1015.1 |
| 20260901083038 | 88 | 336 | 5.0 | 9.0 | 0.00 | 0.00 | 0.00 | 41 | 1015.0 |
| 20260901082538 | 88 | 344 | 6.0 | 10.0 | 0.00 | 0.00 | 0.00 | 41 | 1015.0 |
| 20260901082038 | 88 | 49 | 4.0 | 9.0 | 0.00 | 0.00 | 0.00 | 41 | 1014.9 |
| 20260901081538 | 88 | 335 | 2.0 | 11.0 | 0.00 | 0.00 | 0.00 | 42 | 1014.9 |
| 20260901081041 | 88 | 333 | 8.0 | 8.0 | 0.00 | 0.00 | 0.00 | 43 | 1014.8 |
| 20260901080538 | 87 | 331 | 2.0 | 8.0 | 0.00 | 0.00 | 0.00 | 45 | 1014.7 |
| 20260901080038 | 87 | 310 | 7.0 | 9.0 | 0.00 | 0.00 | 0.00 | 46 | 1014.7 |
| 20260901075538 | 86 | 343 | 5.0 | 9.0 | 0.00 | 0.00 | 0.00 | 47 | 1014.7 |
| 20260901075041 | 86 | 304 | 3.0 | 5.0 | 0.00 | 0.00 | 0.00 | 49 | 1014.7 |
| 20260901074538 | 85 | 302 | 2.0 | 8.0 | 0.00 | 0.00 | 0.00 | 49 | 1014.7 |
| 20260901074041 | 85 | 248 | 1.0 | 6.0 | 0.00 | 0.00 | 0.00 | 52 | 1014.6 |
| 20260901073541 | 85 | 319 | 1.0 | 5.0 | 0.00 | 0.00 | 0.00 | 52 | 1014.5 |
| 20260901073038 | 84 | 348 | 1.0 | 9.0 | 0.00 | 0.00 | 0.00 | 52 | 1014.5 |
| 20260901072538 | 84 | 306 | 3.0 | 3.0 | 0.00 | 0.00 | 0.00 | 54 | 1014.4 |
| 20260901072041 | 83 | 339 | 1.0 | 5.0 | 0.00 | 0.00 | 0.00 | 56 | 1014.5 |
| 20260901071538 | 83 | 344 | 1.0 | 3.0 | 0.00 | 0.00 | 0.00 | 56 | 1014.5 |
| 20260901071038 | 82 | 321 | 0.0 | 4.0 | 0.00 | 0.00 | 0.00 | 59 | 1014.5 |
| 20260901070538 | 82 | 347 | 2.0 | 3.0 | 0.00 | 0.00 | 0.00 | 60 | 1014.4 |
| 20260901070041 | 81 | 286 | 1.0 | 5.0 | 0.00 | 0.00 | 0.00 | 61 | 1014.4 |
| 20260901065538 | 80 | 322 | 1.0 | 4.0 | 0.00 | 0.00 | 0.00 | 63 | 1014.4 |
| 20260901065041 | 80 | 311 | 3.0 | 5.0 | 0.00 | 0.00 | 0.00 | 65 | 1014.4 |
| 20260901064538 | 79 | 322 | 1.0 | 8.0 | 0.00 | 0.00 | 0.00 | 66 | 1014.3 |
| 20260901064038 | 79 | 302 | 7.0 | 7.0 | 0.00 | 0.00 | 0.00 | 66 | 1014.4 |
| 20260901063538 | 79 | 321 | 1.0 | 6.0 | 0.00 | 0.00 | 0.00 | 66 | 1014.4 |
| 20260901063041 | 78 | 331 | 0.0 | 2.0 | 0.00 | 0.00 | 0.00 | 69 | 1014.4 |
| 20260901062538 | 78 | 336 | 0.0 | 8.0 | 0.00 | 0.00 | 0.00 | 70 | 1014.3 |
| 20260901062038 | 77 | 337 | 1.0 | 5.0 | 0.00 | 0.00 | 0.00 | 70 | 1014.3 |
| 20260901061538 | 77 | 315 | 0.0 | 6.0 | 0.00 | 0.00 | 0.00 | 72 | 1014.4 |
| 20260901061038 | 76 | 323 | 2.0 | 6.0 | 0.00 | 0.00 | 0.00 | 73 | 1014.4 |
| 20260901060538 | 76 | 312 | 3.0 | 9.0 | 0.00 | 0.00 | 0.00 | 73 | 1014.4 |
| 20260901060038 | 76 | 314 | 3.0 | 7.0 | 0.00 | 0.00 | 0.00 | 74 | 1014.5 |
| 20260901055538 | 76 | 297 | 2.0 | 8.0 | 0.00 | 0.00 | 0.00 | 74 | 1014.4 |
| 20260901055038 | 76 | 325 | 1.0 | 9.0 | 0.00 | 0.00 | 0.00 | 75 | 1014.4 |
| 20260901054541 | 76 | 304 | 3.0 | 9.0 | 0.00 | 0.00 | 0.00 | 75 | 1014.3 |
| 20260901054039 | 75 | 338 | 3.0 | 9.0 | 0.00 | 0.00 | 0.00 | 75 | 1014.3 |
| 20260901053538 | 75 | 323 | 4.0 | 8.0 | 0.00 | 0.00 | 0.00 | 76 | 1014.3 |
| 20260901053038 | 75 | 306 | 2.0 | 6.0 | 0.00 | 0.00 | 0.00 | 76 | 1014.3 |
| 20260901052538 | 74 | 312 | 5.0 | 9.0 | 0.00 | 0.00 | 0.00 | 76 | 1014.3 |
| 20260901052038 | 74 | 342 | 6.0 | 10.0 | 0.00 | 0.00 | 0.00 | 76 | 1014.2 |